SCP
0 0 0 0 0 0 0 0 0 0 0 0 0 0 0 0 0 0 0 0 0 0 0 0 0 0 0 0 0 0 0 0 0 0 0 0 0 0 0 0 0 0 0
0 0 0 0 0 0 0 0 0 0 0 0 0 0 0 0 0 0 0 0 0 0 0 0 0 0 0 0 0 0 0 0 0 0 0 0 0 0 0 0 0 0 0
0 0 0 0 0 0 0 0 0 0 0 0 0 0 0 0 0 0 0 0 0 0 0 0 0 0 0 0 0 0 0 0 0 0 0 0 0 0 0 0 0 0 0
0 0 0 0 0 0 0 0 0 0 0 0 0 0 0 0 0 0 0 0 0 0 0 0 0 0 0 0 0 0 0 0 0 0 0 0 0 0 0 0 0 0 0
1 1 0 0 0 0 0 0 0 0 0 0 0 0 0 0 0 0 0 0 0 0 0 0 0 0 0 0 0 0 0 0 0 0 0 0 0 0 0 0 0 0 0
1 1 1 1 0 0 0 0 0 0 0 0 0 0 0 0 0 0 0 0 0 0 0 0 0 0 0 0 0 0 0 0 0 0 0 0 0 0 0 0 0 0 0
1 1 1 1 0 0 0 0 0 0 0 0 0 0 0 0 0 0 0 0 0 0 0 0 0 0 0 0 0 0 0 0 0 0 0 0 0 0 0 0 0 0 0
1 1 1 1 0 0 0 0 0 0 0 0 0 0 0 0 0 0 0 0 0 0 0 0 0 0 0 0 0 0 0 0 0 0 0 0 0 0 0 0 0 0 0
1 1 1 0 0 0 0 0 0 0 0 0 0 0 0 0 0 0 0 0 0 0 0 0 0 0 -0 -0 -0 0 0 0 0 0 0 0 0 0 0 0 0 0 0
1 1 1 0 0 0 0 0 0 0 0 0 0 0 0 0 0 0 0 0 0 0 0 0 0 0 -0 -0 -0 0 0 0 0 0 0 0 0 0 0 0 0 0 0
1 1 1 0 0 0 0 0 0 0 0 0 0 0 0 0 0 0 0 0 0 0 0 0 0 0 -0 -0 -0 0 0 0 0 0 0 0 0 0 0 0 0 0 0
1 1 1 1 0 0 0 0 0 0 0 0 0 0 -0 0 0 0 0 0 0 0 0 0 0 0 0 0 0 0 0 0 0 0 0 0 0 0 0 0 0 0 0
1 1 1 1 1 0 0 0 0 0 0 0 0 0 0 0 0 0 0 0 0 0 0 0 0 0 0 0 0 0 0 0 0 0 0 0 0 0 0 0 0 0 0
1 1 1 1 1 1 1 0 0 0 0 0 0 0 0 0 0 0 0 0 0 0 0 0 0 0 0 0 0 0 0 0 0 0 0 0 0 0 0 0 0 0 0
1 1 1 1 1 1 1 1 0 0 0 0 0 0 0 0 0 0 0 0 0 0 0 0 0 0 0 0 0 0 0 0 0 0 0 0 0 0 0 0 0 0 0
1 1 1 1 1 1 1 1 1 0 0 0 0 0 0 0 0 0 0 0 0 0 0 0 0 0 0 0 0 0 0 0 0 0 0 0 0 0 0 0 0 0 0
1 1 1 1 1 1 1 1 1 1 0 0 1 1 0 1 1 0 0 0 0 0 0 0 0 0 0 0 0 0 0 0 0 0 0 0 0 0 0 0 0 0 0
1 1 1 1 1 1 1 1 1 1 1 1 1 1 1 1 0 0 0 0 0 0 0 0 0 0 0 0 0 0 0 0 0 0 0 0 0 0 0 0 0 0 0
2 2 1 1 1 1 1 1 1 1 1 1 1 1 1 0 0 0 0 0 0 0 0 0 0 0 0 0 0 0 0 0 0 0 0 0 0 0 0 0 0 0 0
2 2 1 1 1 1 1 1 1 1 1 1 1 1 1 0 0 0 0 0 0 0 0 0 0 0 0 0 0 0 0 0 0 0 0 0 0 0 0 0 0 0 0
2 2 1 1 1 1 1 1 1 1 1 1 1 1 0 0 0 0 0 0 0 0 0 0 0 0 0 0 0 0 0 0 0 0 0 0 0 0 0 0 0 0 0
2 1 1 1 1 1 1 1 1 1 1 1 1 1 0 0 0 0 0 0 0 0 0 0 0 0 0 0 0 0 0 0 0 0 0 0 0 0 0 0 0 0 0
2 1 1 1 1 1 1 1 1 1 1 1 1 1 0 0 0 0 0 0 0 0 0 0 0 0 0 0 0 0 0 0 0 0 0 0 0 0 0 0 0 0 0
1 1 1 1 1 1 1 1 1 1 1 1 1 1 0 0 0 0 0 0 0 0 0 0 0 0 0 0 0 0 0 0 0 0 0 0 0 0 0 0 0 0 0
1 1 1 1 1 1 1 1 1 1 1 1 1 0 0 0 0 0 0 0 0 0 0 0 0 0 0 0 0 0 0 0 0 0 0 0 0 0 0 0 0 0 0
1 1 1 1 1 1 1 1 1 1 1 1 1 0 0 0 0 0 0 0 0 0 0 0 0 0 0 0 0 0 0 0 0 0 0 0 0 0 0 0 0 0 0
Wind_Speed
17 17 17 17 16 15 15 14 14 14 14 14 14 14 14 14 14 14 14 14 14 14 14 13 13 13 13 13 13 13 13 13 14 15 15 15 13 12 11 12 14 13 15
20 18 18 17 16 15 15 14 14 13 13 13 13 13 13 13 13 14 13 14 14 14 14 13 13 13 13 13 12 12 12 12 12 14 14 13 12 11 10 11 14 10 14
21 18 17 17 16 15 15 14 14 13 13 13 13 12 13 13 13 13 14 14 14 14 14 13 13 13 13 12 12 11 10 10 10 11 11 9 10 12 13 15 16 14 14
21 17 16 18 16 16 15 14 14 13 13 12 12 12 12 12 13 13 14 14 14 14 14 13 13 13 12 12 10 9 8 7 7 7 4 7 9 12 14 14 14 14 13
19 18 18 18 17 16 15 14 13 13 13 12 12 12 12 12 13 14 14 13 13 13 13 13 13 12 12 10 8 6 5 4 3 3 7 9 8 11 13 13 13 13 13
20 19 18 18 17 16 15 14 13 13 12 12 12 12 12 12 13 13 13 13 13 13 13 12 12 12 11 9 7 4 2 0 1 5 8 9 8 10 12 12 12 12 12
19 18 17 18 17 15 15 14 13 13 12 12 12 12 12 12 12 13 13 13 12 12 12 11 11 11 10 8 5 2 2 4 1 7 8 8 8 10 11 11 11 11 11
19 18 16 17 16 15 14 13 13 13 12 12 12 12 12 12 12 12 12 12 12 12 11 11 10 10 8 6 3 1 3 6 4 10 11 9 10 11 11 11 11 11 11
19 17 15 14 14 14 14 13 13 13 12 12 12 12 12 12 12 12 12 11 11 11 10 10 10 9 7 5 1 2 4 6 2 7 12 8 11 11 12 11 11 10 10
16 15 14 14 12 11 11 13 13 12 12 12 12 12 12 12 12 12 11 10 10 10 10 9 8 7 6 4 1 3 5 6 1 9 8 9 12 12 11 11 10 10 10
14 13 13 13 12 11 11 13 12 12 11 11 10 12 11 8 9 8 11 10 10 9 9 8 7 6 5 4 3 3 4 1 5 7 6 12 12 11 11 10 10 9 9
13 12 10 12 12 11 10 10 8 8 8 7 6 7 5 4 5 8 11 10 9 8 7 6 6 5 5 4 4 4 2 1 5 7 7 13 12 11 11 10 9 9 9
13 11 10 10 8 8 7 7 5 4 5 5 6 5 3 4 5 6 5 6 5 7 5 6 5 4 4 2 2 2 1 2 4 6 8 12 11 11 10 9 9 8 8
12 11 10 9 6 6 7 5 5 5 4 3 4 4 3 2 3 4 3 4 4 3 2 2 2 2 1 2 1 1 2 2 5 5 7 12 10 10 10 9 9 8 8
11 11 9 8 7 5 4 4 5 4 5 4 3 2 3 2 3 3 2 1 2 2 2 1 1 1 1 1 0 2 2 3 5 6 6 11 11 10 9 9 9 8 8
11 11 9 9 8 6 4 3 3 4 3 4 4 4 3 3 3 3 2 1 1 2 1 1 1 1 0 0 0 1 2 2 4 6 6 7 10 10 9 9 8 8 8
11 11 9 9 8 7 6 5 4 3 4 3 4 4 3 3 4 3 2 1 1 2 2 1 1 1 1 1 1 1 1 2 3 5 6 5 6 8 10 9 9 8 8
11 11 10 10 10 7 5 4 3 3 4 3 4 4 4 4 4 2 2 1 1 1 1 1 0 1 1 1 1 0 1 1 2 3 4 4 4 5 7 10 9 8 9
11 11 10 8 10 8 6 4 4 3 3 3 4 4 3 4 3 2 2 2 1 1 0 1 2 1 1 1 1 1 1 1 1 2 3 4 4 4 4 7 8 8 8
11 10 10 9 9 9 6 4 3 4 3 4 4 4 4 3 3 2 3 2 1 1 1 2 2 1 1 0 1 1 1 1 2 2 2 3 3 4 5 5 5 5 8
12 11 10 10 9 7 6 5 5 4 4 4 4 5 5 4 3 1 3 2 1 1 2 2 2 1 1 1 1 0 1 1 2 2 2 2 3 3 4 4 4 3 4
13 12 11 10 10 8 6 4 4 4 4 4 4 5 5 4 4 4 3 3 2 2 2 1 1 0 1 2 1 0 1 1 1 2 3 3 3 2 3 4 3 3 3
13 13 11 11 10 9 8 5 5 4 3 4 5 4 4 4 3 2 3 2 2 2 2 1 0 1 0 1 1 0 0 1 1 1 2 3 3 2 2 3 3 3 3
12 12 11 11 10 9 8 8 9 7 6 6 5 5 5 4 4 4 3 3 2 2 2 2 2 0 0 1 1 1 1 1 1 2 1 2 3 2 2 2 3 3 3
13 12 11 10 10 9 8 7 7 6 5 5 5 6 5 4 4 4 4 3 2 2 2 2 2 1 1 0 0 1 1 1 2 2 2 3 2 2 3 2 2 2 3
12 12 12 11 10 9 9 8 7 7 7 7 7 6 5 4 4 5 5 3 2 2 3 2 1 1 1 1 1 1 0 1 1 1 2 3 3 2 3 2 2 2 2
Wind_Direction
118 122 126 123 122 120 117 113 109 105 102 99 95 92 91 90 90 90 95 99 102 102 102 101 98 95 93 91 92 94 95 95 95 97 97 96 96 97 100 105 102 96 99
121 124 126 124 124 123 120 116 112 109 106 103 99 95 94 93 93 92 96 99 101 103 103 102 100 98 98 97 97 98 101 102 105 107 106 98 93 94 95 94 94 103 104
121 126 127 125 125 124 122 119 116 114 111 107 102 99 96 95 94 95 95 97 99 100 101 101 101 100 99 99 99 101 106 112 119 127 127 109 98 94 94 97 101 104 104
125 131 127 127 126 126 125 124 121 118 114 110 105 102 100 98 98 97 98 98 99 100 100 100 99 100 101 102 103 106 112 121 136 149 132 110 103 99 99 102 105 105 105
127 126 126 130 128 127 126 125 122 120 117 113 109 106 103 102 102 101 101 100 99 98 97 97 98 99 102 103 105 108 113 129 163 140 95 91 94 106 105 106 108 107 108
126 124 130 131 130 129 128 126 125 122 119 116 113 110 107 104 103 103 103 101 100 98 96 96 98 100 103 103 105 105 106 204 229 105 104 105 105 110 110 111 110 109 110
123 126 131 133 132 131 130 129 126 124 121 118 117 114 110 108 106 104 103 102 101 100 99 99 99 102 105 104 101 83 355 312 162 105 99 100 106 112 112 112 111 110 112
124 126 129 132 132 133 132 131 129 127 125 122 120 117 113 111 109 107 104 104 104 103 103 103 103 105 108 110 104 22 335 318 84 108 104 105 113 113 113 113 113 113 114
125 128 136 138 136 136 136 135 133 131 129 127 125 122 120 117 115 113 109 108 108 108 107 107 108 109 112 118 120 310 318 322 358 112 111 112 117 117 118 118 117 115 116
128 134 142 143 142 144 141 140 138 137 135 133 134 133 130 127 126 124 119 114 113 114 115 115 117 121 126 141 191 291 313 319 61 100 107 119 123 122 122 123 121 120 119
129 137 145 144 149 151 150 146 145 144 142 142 145 148 149 149 141 145 120 124 123 125 128 131 136 146 158 182 216 267 297 300 89 94 103 126 129 127 127 126 126 124 123
138 141 143 146 152 156 154 148 155 156 154 165 154 166 180 155 138 127 130 135 139 142 147 157 164 175 198 193 200 225 264 99 102 106 122 133 131 130 131 131 130 130 130
143 142 140 145 153 151 140 153 152 144 155 167 158 168 167 138 134 128 145 149 159 168 178 167 189 207 198 178 184 193 140 89 99 109 130 133 134 136 137 138 138 137 136
146 145 147 138 135 129 137 145 148 149 156 154 156 173 155 148 139 134 151 162 167 174 177 170 201 196 156 147 179 87 82 93 104 115 137 136 138 143 145 147 148 146 143
150 148 143 137 129 123 126 153 144 148 153 146 150 166 148 137 121 125 127 150 167 141 158 184 113 65 56 103 11 96 84 87 113 118 132 145 146 150 155 158 160 157 156
152 149 144 141 134 136 137 141 134 150 142 148 154 156 145 120 114 116 122 100 97 112 121 148 142 126 186 67 117 111 103 97 112 124 136 150 157 160 162 166 167 166 165
153 150 148 148 145 149 153 160 149 150 152 149 137 132 132 124 122 119 126 152 113 123 136 182 167 156 199 177 161 139 130 118 125 125 142 152 164 170 172 174 175 175 176
153 153 159 159 149 152 155 167 151 152 138 132 127 126 130 121 129 139 151 134 126 158 165 158 120 125 111 98 101 8 98 120 133 143 156 155 157 162 179 182 180 182 185
154 154 159 149 149 154 158 165 145 133 127 120 120 125 137 140 148 160 125 111 181 164 140 148 112 99 105 95 152 157 127 131 143 168 147 145 152 156 163 176 180 185 191
152 153 155 152 151 152 152 154 143 135 137 127 125 133 141 147 158 162 136 140 214 150 108 75 99 103 98 178 261 116 156 163 165 154 158 139 153 166 162 161 170 187 190
155 159 160 156 153 156 157 162 158 153 155 140 141 141 147 151 152 155 125 144 179 105 112 117 108 161 174 158 98 120 155 159 153 156 137 137 154 157 149 155 165 166 176
161 163 161 160 160 164 160 156 154 146 156 140 127 137 148 149 159 164 139 156 130 117 121 119 121 159 199 154 160 167 150 136 206 152 149 158 148 144 151 159 151 160 169
166 168 168 164 163 165 157 156 146 135 146 136 143 154 156 152 147 102 123 113 129 147 137 144 213 218 186 170 159 143 138 141 147 144 148 128 133 132 140 139 155 160 173
168 167 162 161 162 163 165 165 164 170 168 159 157 152 154 155 150 136 127 122 119 110 125 185 139 306 202 217 166 172 150 125 147 138 149 142 147 147 143 153 151 159 162
168 165 164 161 163 167 171 165 173 168 160 149 144 147 153 156 158 150 138 134 124 105 99 75 85 23 327 318 239 180 156 183 216 160 161 164 163 161 159 163 158 161 161
165 165 164 163 166 170 173 171 179 167 160 151 153 157 165 163 166 159 148 144 137 122 111 95 81 119 61 26 3 1 156 205 213 157 152 163 159 164 156 148 160 159 159